Total_Precipitation_Accumulation
2.77 3.04 3.05 2.97 2.97 3.11 3.06 2.91 2.72 2.72 2.72 2.53 2.33 2.38 2.44 2.44 2.57 2.76 2.94 2.91 2.89 3.17 3.66 3.92 3.96 3.78 3.66 3.58 3.51 3.35 3.15 3.02 2.95 2.83 2.73 2.62 2.49 2.42 2.39 2.38 2.34 2.17 2.10
3.35 3.51 3.48 3.32 3.16 3.29 3.29 3.23 3.08 3.15 3.15 3.11 2.88 2.74 2.65 2.71 2.71 2.80 3.06 3.30 3.16 3.12 3.57 4.14 4.43 4.36 4.17 3.99 3.71 3.42 3.30 3.22 3.15 3.02 2.90 2.72 2.50 2.45 2.45 2.46 2.46 2.30 2.16
3.93 4.01 3.99 3.66 3.43 3.50 3.74 3.76 3.68 3.65 3.39 3.30 3.19 3.13 3.00 2.85 2.85 2.93 3.18 3.65 3.54 3.61 3.78 3.86 4.05 4.11 4.20 4.30 4.22 3.94 3.64 3.44 3.33 3.23 3.14 3.03 2.81 2.61 2.55 2.55 2.62 2.55 2.35
3.99 4.15 4.12 3.95 3.82 3.79 4.08 4.23 4.20 4.15 3.95 3.86 3.66 3.44 3.23 3.18 3.16 3.25 3.37 3.63 3.87 3.84 4.04 3.94 3.74 3.74 4.00 4.22 4.32 4.32 4.10 3.75 3.53 3.56 3.53 3.38 3.11 2.94 2.78 2.67 2.68 2.66 2.54
4.31 4.43 4.32 4.31 4.36 4.47 4.46 4.20 4.35 4.21 4.20 4.12 3.67 3.51 3.26 3.21 3.39 3.35 3.40 3.48 3.68 3.71 3.79 3.79 3.78 3.69 3.82 4.16 4.25 4.42 4.38 4.20 3.97 3.82 3.88 3.77 3.52 3.26 3.03 2.84 2.67 2.60 2.56
4.72 5.02 5.00 4.91 4.90 4.89 4.70 4.61 4.65 4.41 4.23 4.12 3.68 3.49 3.28 3.16 3.19 3.30 3.27 3.27 3.29 3.22 3.24 3.35 3.62 3.51 3.64 3.79 3.85 4.02 4.27 4.37 4.17 3.93 3.86 3.91 3.72 3.34 2.99 2.86 2.77 2.68 2.61
5.56 5.63 5.44 5.32 5.17 5.15 5.07 5.03 4.89 4.67 4.37 4.28 4.25 3.87 3.32 3.12 3.13 3.05 3.03 3.07 3.11 3.08 3.10 3.15 3.10 3.05 3.10 3.33 3.37 3.49 3.78 4.13 4.17 4.11 4.04 3.96 3.83 3.51 3.13 2.88 2.82 2.78 2.70
5.75 5.66 5.72 5.67 5.51 5.40 5.26 5.08 4.96 4.74 4.36 4.30 4.31 4.23 3.74 3.44 3.07 2.67 2.62 2.67 2.81 2.98 2.86 2.76 2.83 2.87 2.81 2.92 2.93 3.22 3.47 3.70 3.94 4.04 3.91 3.77 3.62 3.52 3.43 3.24 3.06 2.95 2.87
5.88 5.70 5.59 5.40 5.31 5.19 5.10 4.95 4.75 4.57 4.34 4.20 4.17 4.36 4.03 3.58 3.15 2.82 2.44 2.37 2.49 2.61 2.53 2.54 2.51 2.58 2.66 2.79 2.75 2.91 3.12 3.17 3.50 3.76 3.82 3.66 3.48 3.35 3.30 3.28 3.23 3.17 3.09
5.45 5.20 5.12 5.04 4.92 4.57 4.38 4.26 4.23 4.08 3.93 3.74 3.80 3.73 3.58 3.37 3.40 3.29 3.00 2.75 2.69 2.64 2.56 2.46 2.38 2.46 2.47 2.63 2.81 2.80 2.78 2.76 2.99 3.29 3.54 3.59 3.44 3.41 3.38 3.35 3.33 3.32 3.32
4.86 4.58 4.47 4.37 4.14 3.74 3.40 3.31 3.50 3.54 3.53 3.42 3.42 3.43 3.42 3.26 3.18 3.19 3.13 3.05 3.00 2.80 2.66 2.64 2.58 2.52 2.44 2.43 2.53 2.65 2.60 2.41 2.48 2.66 3.00 3.30 3.41 3.48 3.49 3.37 3.37 3.38 3.42
4.32 3.94 3.60 3.37 3.12 2.94 2.75 2.73 2.83 2.91 3.15 3.24 3.36 3.35 3.35 3.24 3.09 3.11 3.01 2.97 3.02 2.90 2.70 2.54 2.47 2.40 2.36 2.31 2.26 2.48 2.26 2.10 2.07 2.15 2.35 2.63 2.91 3.07 3.06 3.16 3.32 3.42 3.52
3.53 3.22 2.90 2.78 2.63 2.54 2.48 2.51 2.54 2.51 2.62 2.80 2.91 3.02 3.10 3.07 3.04 3.08 3.19 3.14 2.98 2.80 2.71 2.52 2.30 2.20 2.18 2.23 2.22 2.30 2.07 1.92 1.83 1.82 1.84 1.95 2.11 2.36 2.53 2.72 2.89 3.07 3.20
2.74 2.52 2.30 2.13 2.10 2.17 2.13 2.23 2.26 2.28 2.29 2.36 2.43 2.68 2.78 2.78 2.81 2.77 2.83 2.96 3.01 2.83 2.59 2.40 2.24 2.09 2.00 1.92 1.96 1.99 1.72 1.73 1.59 1.55 1.56 1.61 1.66 1.75 1.91 2.04 2.14 2.21 2.29
2.09 1.92 1.84 1.81 1.78 1.84 1.96 1.99 1.94 1.97 2.08 2.12 2.16 2.30 2.33 2.32 2.39 2.45 2.55 2.67 2.87 2.87 2.61 2.29 2.14 1.96 1.79 1.67 1.74 1.55 1.47 1.52 1.38 1.31 1.30 1.32 1.34 1.41 1.50 1.57 1.68 1.70 1.70
1.81 1.75 1.67 1.62 1.57 1.56 1.59 1.68 1.72 1.75 1.80 1.92 1.99 2.02 2.03 1.98 2.04 2.11 2.28 2.46 2.54 2.60 2.48 2.08 1.82 1.68 1.62 1.47 1.57 1.40 1.40 1.43 1.22 1.18 1.15 1.18 1.23 1.30 1.33 1.37 1.40 1.48 1.48
1.57 1.53 1.45 1.37 1.32 1.31 1.36 1.48 1.51 1.55 1.62 1.71 1.80 1.79 1.80 1.80 1.87 1.86 1.90 1.98 2.13 2.25 2.22 1.93 1.74 1.67 1.62 1.53 1.53 1.49 1.45 1.36 1.19 1.19 1.13 1.12 1.16 1.18 1.20 1.22 1.20 1.24 1.35
1.47 1.43 1.32 1.20 1.13 1.13 1.19 1.25 1.27 1.30 1.43 1.48 1.51 1.54 1.52 1.56 1.62 1.61 1.64 1.67 1.76 1.92 1.98 1.96 1.84 1.78 1.70 1.59 1.62 1.63 1.37 1.17 1.13 1.15 1.05 1.00 1.02 1.03 1.06 1.07 1.06 1.04 1.06
1.46 1.35 1.19 1.10 1.06 1.02 1.04 1.10 1.16 1.16 1.20 1.28 1.29 1.35 1.38 1.42 1.39 1.33 1.39 1.49 1.53 1.60 1.80 1.82 1.71 1.65 1.57 1.48 1.62 1.54 1.42 1.50 1.17 1.07 0.98 0.91 0.91 0.89 0.90 0.92 0.93 0.92 0.87
1.36 1.28 1.20 1.10 1.04 0.99 1.00 1.01 1.01 1.08 1.12 1.16 1.14 1.17 1.18 1.20 1.22 1.27 1.30 1.45 1.51 1.63 1.71 1.72 1.67 1.62 1.54 1.47 1.62 1.62 1.58 1.54 1.31 1.00 0.95 0.83 0.86 0.85 0.83 0.83 0.82 0.80 0.78
1.37 1.29 1.22 1.13 0.99 0.88 0.84 0.88 0.90 0.94 1.02 1.05 1.05 1.03 1.02 1.06 1.14 1.15 1.11 1.24 1.41 1.58 1.59 1.59 1.58 1.61 1.53 1.57 1.55 1.50 1.54 1.58 1.47 1.22 1.22 1.01 0.94 0.97 0.97 0.91 0.84 0.81 0.76
1.32 1.27 1.17 1.04 0.92 0.76 0.78 0.79 0.81 0.87 0.97 1.01 0.98 0.98 0.95 0.93 0.96 1.00 1.00 1.07 1.23 1.37 1.46 1.54 1.55 1.57 1.57 1.65 1.67 1.65 1.64 1.68 1.66 1.38 1.40 1.30 1.15 1.21 1.12 1.02 0.93 0.80 0.72
1.29 1.21 1.11 1.07 1.00 0.87 0.72 0.62 0.67 0.79 0.94 0.95 0.94 0.99 0.89 0.80 0.90 0.93 0.96 0.96 0.99 1.03 1.16 1.39 1.55 1.60 1.71 1.85 1.93 1.86 1.78 1.74 1.73 1.52 1.62 1.55 1.40 1.43 1.15 0.99 1.03 0.88 0.77
1.20 1.20 1.18 1.22 1.21 0.98 0.73 0.58 0.64 0.80 0.91 0.84 0.81 0.88 0.95 0.96 0.92 0.93 0.95 0.97 0.99 0.99 1.02 1.10 1.36 1.47 1.51 1.70 1.90 1.94 1.91 1.82 1.79 1.76 1.85 1.81 1.43 1.35 1.19 1.35 1.32 1.12 0.93
1.10 1.12 1.14 1.21 1.21 1.07 0.86 0.69 0.69 0.81 0.88 0.84 0.82 0.80 0.81 0.87 0.86 0.92 1.00 1.15 1.19 1.18 0.96 1.00 1.13 1.22 1.28 1.42 1.57 1.77 1.96 2.05 1.98 1.85 1.83 1.84 1.60 1.46 1.46 1.65 1.57 1.47 1.23
1.00 0.98 1.03 1.13 1.10 1.01 0.82 0.66 0.66 0.68 0.79 0.90 0.99 0.98 0.94 0.87 0.85 0.92 1.06 1.24 1.31 1.28 1.26 1.38 1.49 1.48 1.46 1.51 1.47 1.65 1.95 2.08 2.03 1.97 1.82 1.83 1.81 1.75 1.82 1.83 1.79 1.68 1.59